Location: Werneck
(49.9820°N, 10.0988°E)
Time: 11:15:47
(UTC+00:00)

Daily predictions for brighter satellites

Satellite Brightness Start Highest point End
(mag) Time Altitude Azimuth Time Altitude Azimuth Time Altitude Azimuth
Cosmos 1892 Rocket 3.6 19:31:51 10° N 19:36:12 85° W 19:40:29 10° S
Cosmos 1455 Rocket 3.0 19:32:00 10° S 19:36:24 78° E 19:40:48 10° NNE
USA 306 2.2 19:33:20 10° WSW 19:36:46 68° NNW 19:39:10 10° ENE
CZ-4B R/B 4.3 19:35:42 10° ESE 19:38:09 19° ENE 19:40:39 10° NNE
Okean O Rocket 1.9 19:34:55 10° SE 19:39:04 49° ENE 19:43:14 10° N
Cosmos 2100 Rocket 4.5 19:34:40 10° SSW 19:40:54 69° WNW 19:47:13 10° N
Meteor 1-27 4.2 19:36:40 10° S 19:42:17 78° E 19:47:53 10° NNE
Cosmos 2228 3.0 19:38:35 10° S 19:42:37 58° E 19:46:39 10° NNE
SL-24 R/B 4.4 19:38:44 10° N 19:43:01 76° WNW 19:47:42 10° SSW
NOSS 3-4 (A) 4.3 19:36:47 10° NW 19:43:01 50° NE 19:50:20 10° ESE
SL-16 R/B 2.7 19:37:52 10° NNW 19:43:24 49° NE 19:48:52 10° SE
NOSS 3-4 (C) 4.4 19:37:24 10° NW 19:43:40 49° NE 19:51:00 10° ESE
USA 186 2.2 19:41:10 10° SE 19:43:41 34° ENE 19:46:14 10° N
Okean 1 Rocket 4.5 19:44:41 10° SSW 19:48:53 43° WNW 19:53:08 10° N
Cosmos 1544 Rocket 4.4 19:46:16 10° SSE 19:50:05 31° E 19:53:55 10° NNE
Cosmos 2084 Rocket 4.2 19:47:08 10° NW 19:51:10 46° SW 19:55:15 10° SSE
Cosmos 2233 Rocket 4.0 19:45:13 10° S 19:51:20 68° E 19:57:27 10° NNE
ATLAS 2AS CENTAUR R/B 4.4 19:46:13 10° W 19:52:34 38° NNW 19:58:51 10° NE
SKYMED 3 4.3 19:53:09 10° NNE 19:57:07 88° ESE 20:01:06 10° SSW
CZ-2C R/B 4.3 19:56:00 10° E 19:57:24 13° ENE 19:58:49 10° NNE
COSMOS 2406 3.5 19:53:08 10° S 19:58:34 46° ESE 20:04:01 10° NE
Cosmos 1980 Rocket 3.5 19:53:37 10° NW 19:58:48 37° WSW 20:03:57 10° S
Okean-O 2.6 19:55:29 10° SSE 19:59:51 77° ENE 20:04:14 10° NNW
Cosmos 1782 2.8 19:56:32 10° SSW 20:00:02 70° W 20:03:34 10° N
CZ-4 R/B 3.2 19:57:22 10° SSW 20:00:24 25° W 20:03:28 10° NW
Ariane Rocket 3.8 19:58:02 11° SE 20:02:31 38° ENE 20:07:11 10° N
Meteor 1-20 Rocket 4.4 19:59:05 10° N 20:04:36 58° ENE 20:09:56 11° SSE
Cosmos 1933 4.1 20:02:11 11° SSE 20:05:20 31° E 20:08:43 10° NNE
SPOT 3 Rocket 3.9 20:01:10 11° SE 20:05:56 51° ENE 20:10:54 10° N
Cosmos 1758 Rocket 3.7 20:02:08 10° N 20:06:30 61° ENE 20:10:37 11° SSE
Spot 2 Rocket 3.5 20:02:48 10° SSE 20:07:50 84° WSW 20:12:54 10° NNW
Cosmos 1725 Rocket 4.5 20:03:53 10° SSW 20:10:06 66° WNW 20:16:20 10° N
Cosmos 2333 Rocket 2.4 20:05:36 10° NNW 20:11:18 67° ENE 20:16:16 14° SE
ERS-1 Rocket 4.3 20:09:24 10° SSW 20:14:02 38° W 20:18:44 10° NNW
Tsikada Rocket 4.3 20:12:07 10° NNW 20:18:15 70° W 20:24:21 10° S
USA 245 4.3 20:19:40 12° SSE 20:25:07 78° ENE 20:30:40 10° NNW
Cosmos 2360 Rocket 2.6 20:19:37 10° NNW 20:25:11 53° NE 20:29:39 16° SE
Cosmos 1461 2.6 20:22:54 10° SSW 20:26:31 54° SE 20:30:08 10° NE
CZ-4B R/B 4.4 20:21:51 10° SSW 20:27:07 40° W 20:32:23 10° NNW
CZ-4B R/B 3.5 20:25:36 16° SSE 20:29:22 64° ENE 20:34:11 10° N
CZ-4C R/B 3.7 20:26:23 10° W 20:30:38 36° NNW 20:36:04 10° NE
Cosmos 1602 Rocket 3.6 20:26:25 10° N 20:30:42 62° ENE 20:33:50 18° SSE
Cosmos 1992 Rocket 4.1 20:25:57 10° SSW 20:31:10 80° WNW 20:36:24 10° NNE
YAOGAN 11 4.3 20:29:23 10° NNE 20:33:49 79° WNW 20:38:16 10° SSW
Cosmos 1777 Rocket 4.2 20:32:17 10° NNW 20:37:30 62° ENE 20:41:09 19° SE
ISS -3.3 20:34:11 10° W 20:37:31 63° N 20:40:51 10° E
Cosmos 2219 Rocket 2.9 20:33:09 10° NNW 20:38:33 44° NE 20:42:48 16° ESE
Meteor 1-25 Rocket 4.2 20:33:40 10° N 20:39:22 80° ENE 20:43:46 17° SSE
Cosmos 220 Rocket 3.9 20:36:01 11° S 20:39:43 54° ESE 20:43:43 10° NNE
Cosmos 1437 Rocket 2.4 20:36:40 12° S 20:39:54 83° E 20:43:31 10° NNE
USA 290 3.5 20:39:45 22° ESE 20:40:02 22° ESE 20:42:34 10° NE
SL-08 R/B 4.4 20:39:24 10° N 20:44:01 46° WNW 20:48:32 10° SW
Cosmos 1503 Rocket 4.3 20:40:53 10° NNW 20:46:00 57° ENE 20:49:23 21° SE
Cosmos 1626 Rocket 4.3 20:42:48 10° NNW 20:47:01 49° W 20:51:00 11° SSW
DEBRIS 3.6 20:43:56 10° W 20:47:14 85° S 20:58:04 10° E
Cosmos 2098 Rocket 3.3 20:44:23 18° SSE 20:47:48 55° E 20:51:53 10° NNE
Cosmos 1076 Rocket 4.3 20:45:22 10° N 20:49:21 37° ENE 20:51:27 22° SE
NOSS 3-3 (A) 4.2 20:44:35 10° WSW 20:49:51 65° NW 20:56:16 10° NE
Terra 4.1 20:48:35 10° SW 20:51:55 19° W 20:55:17 10° NW
Cosmos 2151 3.5 20:51:02 10° NNW 20:55:03 52° W 20:58:09 16° SSW
Cosmos 2322 Rocket 2.2 20:51:21 10° NNW 20:57:03 89° ENE 21:00:46 23° SSE
Cosmos 1486 Rocket 4.0 20:51:52 10° NNW 20:57:09 85° WSW 21:00:35 22° SSE
Cosmos 1513 Rocket 4.5 20:51:19 10° S 20:57:32 89° E 21:03:42 10° N
IRS-1C Rocket 4.2 20:53:40 19° S 20:57:34 80° WSW 21:02:53 10° NNW
Cosmos 1464 Rocket 4.0 20:53:50 17° S 20:58:41 65° E 21:04:48 10° NNE
Cosmos 1354 Rocket 4.4 20:55:09 10° NNW 21:00:18 53° ENE 21:03:26 23° SE
Cosmos 2082 Rocket 3.7 20:56:29 10° WSW 21:01:49 39° NW 21:07:09 10° NNE
USA 306 3.4 21:01:36 10° WNW 21:03:50 24° NNW 21:04:50 16° NE
Meteor 2-10 4.2 20:59:44 10° NNW 21:05:31 85° ENE 21:09:14 23° SSE
Cosmos 1606 Rocket 3.5 21:03:17 25° S 21:05:42 63° E 21:09:58 10° NNE
CZ-4B R/B 3.7 21:09:42 18° SSW 21:11:40 35° W 21:14:53 10° NNW
Cosmos 1766 4.0 21:09:34 10° N 21:12:25 28° ENE 21:13:02 26° E
USA 186 4.3 21:12:13 10° WSW 21:13:13 11° W 21:14:14 10° WNW
Cosmos 1726 Rocket 3.5 21:12:35 32° SSE 21:14:11 54° E 21:18:09 10° NNE
Cosmos 2237 Rocket 4.3 21:10:37 10° N 21:14:39 19° NE 21:18:37 10° E
Cosmos 1428 Rocket 4.4 21:08:56 10° N 21:15:13 84° E 21:19:09 24° SSE
Okean O Rocket 3.7 21:12:20 10° SW 21:15:31 20° W 21:18:43 10° NW
Cosmos 540 Rocket 3.8 21:13:17 26° SSE 21:15:48 46° ESE 21:20:43 10° NNE
Cosmos 1092 Rocket 4.4 21:11:00 10° N 21:17:00 51° ENE 21:20:29 25° SE
Aureole 1 Rocket 4.3 21:13:00 10° NNW 21:18:32 53° ENE 21:22:39 23° SE
Cosmos 1805 3.7 21:17:54 10° NNW 21:21:02 43° W 21:22:21 27° SSW
Cosmos 2278 4.4 21:17:29 10° NW 21:22:56 46° WSW 21:26:23 21° S
COSMOS 2428 3.8 21:21:05 10° NNW 21:26:22 37° NE 21:30:13 17° ESE
SL-16 R/B 3.4 21:22:15 10° NW 21:27:18 34° WSW 21:30:55 17° SSW
CZ-2C R/B 3.2 21:27:14 28° SW 21:27:53 32° W 21:30:26 10° NNW
Okean 1-7 Rocket 4.0 21:23:47 10° NNW 21:28:11 58° W 21:30:35 25° SSW
Geosat 4.2 21:28:12 10° NE 21:33:04 49° ESE 21:35:08 31° S
NOSS 3-4 (A) 4.1 21:27:33 10° NW 21:34:09 57° SW 21:38:39 25° SSE
NOSS 3-4 (C) 4.1 21:28:11 10° NW 21:34:48 57° SW 21:39:17 26° SSE
Cosmos-2242 3.1 21:34:03 39° SE 21:35:11 51° E 21:39:11 10° NNE
Cosmos 2034 Rocket 4.0 21:32:54 23° S 21:37:05 83° E 21:43:27 10° N
Ariane Rocket 4.2 21:38:07 17° SSW 21:41:25 35° W 21:46:03 10° NNW
USA 234 4.3 21:41:54 10° ENE 21:47:01 24° SE 21:47:11 24° SE
TSX-5 3.8 21:46:30 10° NNW 21:49:34 48° NE 21:50:06 43° E
Cosmos 2333 Rocket 3.8 21:50:39 10° NW 21:55:05 24° WSW 21:58:17 15° SW
Helios 1B rocket 2.0 21:55:11 57° SE 21:55:42 70° ENE 21:59:12 10° N
Cosmos 2279 Rocket 4.4 21:53:17 31° SE 21:55:57 49° E 22:01:57 10° NNE
Cosmos 1763 Rocket 3.6 21:53:12 20° SSW 21:56:54 77° WNW 22:02:12 10° NNE
Okean 1 4.2 21:56:18 24° SW 21:57:54 39° WNW 22:01:18 10° N
Cosmos 1470 3.1 21:54:55 10° N 21:58:02 37° ENE 21:58:12 37° E
Cosmos 1536 2.5 21:54:53 10° N 21:58:35 84° E 21:59:12 60° SSE
Cosmos 2221 3.5 21:59:07 29° ESE 21:59:36 29° E 22:03:15 10° NNE
Cosmos 1707 2.1 21:59:51 70° NNW 21:59:51 70° NNW 22:02:29 10° N
Cosmos 1898 Rocket 3.8 21:54:41 10° NNW 21:59:48 57° ENE 22:02:03 32° SE
Cosmos 1634 Rocket 4.0 21:57:45 32° S 22:00:45 72° E 22:06:57 10° NNE
CSL-04 DEB 4.1 22:01:35 58° SE 22:02:08 71° ENE 22:05:46 10° N
Cosmos 2297 Rocket 3.7 22:01:44 19° ESE 22:02:25 19° E 22:06:18 10° NE
Cosmos 1833 4.3 21:57:58 17° SW 22:02:27 79° WNW 22:08:07 10° NNE
CZ-2C R/B 4.2 21:59:09 10° NNE 22:03:24 42° E 22:04:14 38° SE
Cosmos 1953 Rocket 4.1 21:59:13 10° NNW 22:03:27 50° W 22:04:56 34° SSW
Cosmos 990 Rocket 4.5 21:59:56 10° NNW 22:04:55 49° WSW 22:06:54 32° SSW
Cosmos 44 3.5 21:59:35 10° NW 22:04:59 75° SW 22:06:56 40° SSE
Cosmos 2360 Rocket 3.4 22:03:59 10° NW 22:08:55 31° WSW 22:11:23 22° SW
Meteor 2-6 Rocket 4.4 22:08:15 35° SSE 22:10:46 66° E 22:16:40 10° NNE
Cosmos 2322 3.7 22:05:33 10° NNW 22:11:17 77° ENE 22:13:46 35° SE
USA 290 4.3 22:12:10 15° WSW 22:14:03 25° WNW 22:16:43 10° N
ISS -3.9 22:11:05 10° WNW 22:14:19 81° W 22:14:19 81° W
Cosmos 2026 Rocket 4.4 22:08:42 10° NNW 22:14:56 58° W 22:18:17 28° SSW
Cosmos 2058 Rocket 3.1 22:14:25 41° SSW 22:15:51 72° WNW 22:20:11 10° N
GP-B 4.3 22:14:11 10° NNE 22:17:59 28° E 22:18:52 26° ESE
SAR-Lupe-2 4.3 22:20:01 35° E 22:20:14 36° ENE 22:23:19 10° N
Helios 1A 3.3 22:17:21 10° N 22:21:12 55° WNW 22:22:30 36° SW
Cosmos 2219 Rocket 3.0 22:17:15 10° NW 22:22:26 38° WSW 22:24:29 29° SSW
Cosmos 2266 Rocket 4.4 22:18:16 10° N 22:24:10 52° ENE 22:26:50 31° SE
Cosmos 1975 2.6 22:21:27 10° N 22:25:07 64° ENE 22:25:24 61° ESE
KORONAS-FOTON 3.6 22:25:06 59° WSW 22:25:20 62° W 22:28:43 10° N
Cosmos 841 Rocket 3.7 22:28:15 43° SSE 22:29:34 56° ESE 22:34:42 10° NNE
RESURS DK-1 2.1 22:28:07 10° NNW 22:32:07 84° WSW 22:32:35 68° SSE
ARIANE 5 R/B 2.5 22:32:16 53° SSE 22:33:19 89° W 22:37:49 10° NNW
Meteor 1-19 Rocket 4.4 22:32:11 39° SSE 22:34:13 62° E 22:40:05 10° NNE
ALOS 2 2.6 22:33:58 53° SSE 22:34:59 79° ENE 22:39:23 10° NNW
Cosmos 2322 Rocket 4.1 22:36:47 10° WNW 22:40:18 17° W 22:42:34 14° SW
Cosmos 1271 Rocket 2.7 22:46:13 57° W 22:46:19 58° WNW 22:49:40 10° N
Cosmos 372 Rocket 4.4 22:41:43 10° NNW 22:46:37 48° WSW 22:47:53 39° SW
SL-16 R/B 4.2 22:42:36 10° NNW 22:47:13 25° NE 22:51:50 10° E
Cosmos 1842 3.6 22:47:39 42° WNW 22:47:39 42° WNW 22:50:39 10° N
Lacrosse 4 Rocket 3.1 22:51:57 20° E 22:51:57 20° E 22:54:18 10° ENE
Spot 4 4.0 22:51:57 46° SSW 22:53:07 61° WSW 22:57:53 10° NNW
Meteor 2-9 Rocket 4.3 22:48:49 10° NNW 22:54:09 65° W 22:55:56 42° SSW
Cosmos 1766 Rocket 4.4 22:50:12 10° N 22:54:16 40° ENE 22:55:19 34° ESE
PSLV R/B 3.5 22:50:57 10° NNE 22:55:14 76° ESE 22:55:59 59° S
Cosmos 2237 Rocket 2.3 22:54:03 10° NNW 22:59:45 71° ENE 23:02:17 34° SE
CZ-2C R/B 3.0 22:58:57 34° SE 23:01:04 56° ENE 23:06:10 10° N
BREEZE-M DEB (TANK) 4.0 22:47:23 10° WSW 23:01:57 87° SSE 23:05:38 10° ENE
Cosmos 1980 3.7 22:58:13 10° NNW 23:03:55 81° ENE 23:06:13 38° SE
ARGOS Delta rocket 4.1 22:59:30 10° N 23:04:40 77° WNW 23:06:31 41° SSW
Cosmos 858 Rocket 4.4 23:00:01 10° NNW 23:05:14 84° WSW 23:06:42 48° SSE
Cosmos 1937 Rocket 3.6 23:03:15 10° NNW 23:08:17 57° WSW 23:09:27 46° SSW
COSMOS 2428 3.1 23:05:18 10° NW 23:10:44 47° WSW 23:12:11 39° SSW
Cosmos 2227 Rocket 3.3 23:11:04 26° SE 23:12:17 28° ESE 23:17:02 10° NE
NOSS 0 Rocket 4.0 23:07:23 10° NW 23:13:26 60° WSW 23:15:26 41° S
Meteor 2-4 Rocket 4.1 23:11:49 38° SE 23:13:26 50° E 23:18:46 10° NNE
Meteor 1-11 Rocket 3.8 23:08:20 10° NNW 23:13:59 69° W 23:15:45 43° SSW
MetOp-A 3.8 23:18:10 51° S 23:19:22 78° WSW 23:24:05 10° NNW
Meteor 1-10 Rocket 4.4 23:17:23 39° SSW 23:19:43 76° WNW 23:25:42 10° N
Cosmos 2263 Rocket 3.7 23:20:54 20° ESE 23:22:15 22° E 23:26:22 10° NE
Cosmos 1238 Rocket 2.8 23:25:54 64° SE 23:26:19 70° E 23:30:40 10° NNE
Cosmos 1812 Rocket 4.1 23:25:18 40° WSW 23:26:21 50° WNW 23:30:41 10° N
USA 234 3.2 23:24:14 10° ENE 23:30:48 71° SE 23:34:29 28° SW
SeaSat 1 2.8 23:28:37 27° SE 23:31:13 59° NE 23:36:03 10° NNW
CZ-2C R/B 3.3 23:27:47 10° NNE 23:33:35 87° WNW 23:35:48 41° SSW
Meteor 1-27 Rocket 3.7 23:32:34 42° SSW 23:34:42 85° WNW 23:40:29 10° NNE
ACS3 Solar Sail 2.6 23:29:16 10° NNE 23:34:51 39° E 23:37:20 27° SE
Cosmos 2221 3.8 23:35:23 25° W 23:36:35 29° WNW 23:40:17 10° N
ATLAS 2AS CENTAUR R/B 4.1 23:31:53 10° NW 23:38:09 37° NNE 23:44:23 10° E
Meteor 2-20 Rocket 4.2 23:37:28 42° S 23:39:31 89° ESE 23:45:16 10° N
BlueWalker 3 3.2 23:41:17 26° E 23:41:17 26° E 23:43:12 10° ENE
Cosmos 2297 Rocket 2.2 23:43:29 38° SW 23:45:46 80° WNW 23:51:27 10° NNE
Cosmos 1125 Rocket 4.5 23:41:51 10° NNW 23:46:56 44° ENE 23:50:47 16° SE
Okean 3 Rocket 4.1 23:43:24 10° N 23:47:52 55° ENE 23:49:21 37° SE
Landsat 5 3.3 23:47:02 10° NNE 23:51:08 76° ESE 23:51:40 63° SSE
Cosmos 1340 Rocket 4.3 23:48:23 10° N 23:51:46 29° ENE 23:53:20 21° ESE
Cosmos 1842 Rocket 3.5 23:53:33 55° SSE 23:54:27 77° E 23:58:52 10° NNE
GP-B 4.1 23:51:05 10° NNW 23:55:02 34° W 23:56:01 30° WSW
